TimeEDT,TemperatureF,Dew PointF,Humidity,Sea Level PressureIn,VisibilityMPH,Wind Direction,Wind SpeedMPH,Gust SpeedMPH,PrecipitationIn,Events,Conditions,WindDirDegrees,DateUTC
12:51 AM,66.9,64.0,90,30.35,10.0,Calm,Calm,-,N/A,,Clear,0,2013-07-16 04:51:00
1:51 AM,64.9,64.0,97,30.36,10.0,Calm,Calm,-,N/A,,Mostly Cloudy,0,2013-07-16 05:51:00
2:51 AM,64.9,63.0,93,30.35,10.0,Calm,Calm,-,N/A,,Partly Cloudy,0,2013-07-16 06:51:00
3:47 AM,64.4,62.6,94,30.39,6.0,Calm,Calm,-,N/A,,Partly Cloudy,0,2013-07-16 07:47:00
3:51 AM,64.0,62.1,93,30.35,6.0,Calm,Calm,-,N/A,,Partly Cloudy,0,2013-07-16 07:51:00
4:51 AM,63.0,61.0,93,30.35,10.0,Calm,Calm,-,N/A,,Partly Cloudy,0,2013-07-16 08:51:00
5:29 AM,62.6,60.8,94,30.39,10.0,Calm,Calm,-,N/A,,Mostly Cloudy,0,2013-07-16 09:29:00
5:43 AM,62.6,62.6,100,30.39,10.0,Calm,Calm,-,N/A,,Overcast,0,2013-07-16 09:43:00
5:51 AM,64.0,62.1,93,30.36,10.0,Calm,Calm,-,N/A,,Overcast,0,2013-07-16 09:51:00
6:12 AM,64.4,62.6,94,30.40,1.8,Calm,Calm,-,N/A,,Overcast,0,2013-07-16 10:12:00
6:23 AM,64.4,62.6,94,30.40,0.2,Calm,Calm,-,N/A,Fog,Fog,0,2013-07-16 10:23:00
6:34 AM,64.4,62.6,94,30.40,0.5,Calm,Calm,-,N/A,Fog,Fog,0,2013-07-16 10:34:00
6:51 AM,64.9,63.0,93,30.38,0.2,Calm,Calm,-,N/A,Fog,Fog,0,2013-07-16 10:51:00
7:10 AM,64.4,64.4,100,30.41,0.5,Calm,Calm,-,N/A,Fog,Fog,0,2013-07-16 11:10:00
7:19 AM,64.4,64.4,100,30.41,2.0,Calm,Calm,-,N/A,,Overcast,0,2013-07-16 11:19:00
7:27 AM,66.2,64.4,94,30.41,8.0,Calm,Calm,-,N/A,,Overcast,0,2013-07-16 11:27:00
7:51 AM,66.9,64.0,90,30.39,10.0,Calm,Calm,-,N/A,,Scattered Clouds,0,2013-07-16 11:51:00
8:01 AM,68.0,64.4,88,30.42,10.0,Calm,Calm,-,N/A,,Mostly Cloudy,0,2013-07-16 12:01:00
8:51 AM,69.1,66.0,90,30.40,10.0,Calm,Calm,-,N/A,,Overcast,0,2013-07-16 12:51:00
9:07 AM,71.6,66.2,83,30.42,10.0,Calm,Calm,-,N/A,,Mostly Cloudy,0,2013-07-16 13:07:00
9:51 AM,75.0,66.9,76,30.39,10.0,Calm,Calm,-,N/A,,Partly Cloudy,0,2013-07-16 13:51:00
10:51 AM,81.0,69.1,67,30.38,10.0,Calm,Calm,-,N/A,,Partly Cloudy,0,2013-07-16 14:51:00
11:51 AM,82.9,68.0,60,30.37,10.0,Variable,5.8,-,N/A,,Mostly Cloudy,0,2013-07-16 15:51:00
12:51 PM,82.0,68.0,62,30.35,10.0,NW,6.9,-,N/A,,Scattered Clouds,310,2013-07-16 16:51:00
1:51 PM,84.0,68.0,58,30.33,10.0,WNW,8.1,-,N/A,,Scattered Clouds,290,2013-07-16 17:51:00
2:51 PM,84.0,68.0,58,30.32,10.0,WNW,5.8,-,N/A,,Mostly Cloudy,300,2013-07-16 18:51:00
3:51 PM,87.1,70.0,57,30.30,10.0,WNW,9.2,-,N/A,,Scattered Clouds,290,2013-07-16 19:51:00
4:51 PM,87.1,69.1,55,30.29,10.0,NNW,4.6,-,N/A,,Mostly Cloudy,330,2013-07-16 20:51:00
5:51 PM,86.0,70.0,59,30.30,10.0,WNW,10.4,-,N/A,,Mostly Cloudy,300,2013-07-16 21:51:00
6:51 PM,82.9,70.0,65,30.31,10.0,NNW,6.9,19.6,N/A,,Mostly Cloudy,330,2013-07-16 22:51:00
7:51 PM,72.0,68.0,87,30.36,10.0,SW,4.6,-,0.04,Rain,Light Rain,230,2013-07-16 23:51:00
8:51 PM,71.1,66.9,87,30.35,10.0,Calm,Calm,-,0.00,,Clear,0,2013-07-17 00:51:00
9:51 PM,69.1,66.9,93,30.34,10.0,Calm,Calm,-,N/A,,Clear,0,2013-07-17 01:51:00
10:51 PM,68.0,66.0,93,30.35,9.0,Calm,Calm,-,N/A,,Clear,0,2013-07-17 02:51:00
11:51 PM,68.0,64.9,90,30.35,10.0,Calm,Calm,-,N/A,,Clear,0,2013-07-17 03:51:00